Regional Weather Roundup
Issued by NWS

Home | Current Version | Previous Version | Graphics & Text | Print | Product List | Glossary Off
Versions: 1 2 3 4 5 6 7 8 9 10 11 12 13 14 15 16 17 18 19 20 21 22 23 24 25 26 27 28 29 30 31 32 33 34 35 36 37 38 39 40 41 42 43 44 45 46 47 48 49 50

000
ASUS43 KMKX 021400
RWRWI

WISCONSIN REGIONAL WEATHER ROUNDUP
NATIONAL WEATHER SERVICE MILWAUKEE/SULLIVAN WI
900 AM CDT WED SEP 02 2015

NOTE: "FAIR" INDICATES FEW OR NO CLOUDS BELOW 12,000 FEET WITH NO
SIGNIFICANT WEATHER AND/OR OBSTRUCTIONS TO VISIBILITY.

WIZ001-002-006>008-014>016-023>028-021500-
NORTHWEST WISCONSIN

CITY           SKY/WX    TMP DP  RH WIND       PRES   REMARKS
SUPERIOR ARPT  DRIZZLE   63  62  97 E5        29.98F
ASHLAND        LGT RAIN  68  68 100 W6        30.02R
HAYWARD        CLOUDY    67  65  93 E5        29.98F
SIREN          CLOUDY    66  64  94 SE5       29.95F
CUMBERLAND     LGT RAIN  64  63  94 N7        29.96F
RICE LAKE      CLOUDY    67  64  91 E3        29.98F
CHETEK         LGT RAIN N/A N/A N/A SE6       29.99S
LADYSMITH      CLOUDY    68  65  91 CALM      30.01S
EAU CLAIRE     CLOUDY    72  69  90 CALM      29.99R
MENOMONIE      TSTM      72  71  98 CALM      30.00R
NEW RICHMOND   RAIN      71  71  99 SE5       29.96S
OSCEOLA        CLOUDY    71  71 100 E8        29.97S
$$

WIZ003>005-009-010-017-018-021500-
NORTH CENTRAL WISCONSIN

CITY           SKY/WX    TMP DP  RH WIND       PRES   REMARKS
MANITOWISH WTR TSTM      64  64 100 E5        30.01F
ARBOR VITAE    CLOUDY    66  64  94 NE8       30.02F
WOODRUFF       CLOUDY    66  64  94 NE8       30.02F
RHINELANDER    LGT RAIN  67  64  90 N9        30.03R
EAGLE RIVER    LGT RAIN  67  64  92 NW16G30   30.03R
LAND O LAKES   TSTM      63  62  94 N7        30.04R VSB 1
PHILLIPS       DRIZZLE   66  65  96 NE8       30.01F
TOMAHAWK       CLOUDY    69  68  97 NW7       30.03R
MEDFORD        CLOUDY    72  71  96 N9        30.01S FOG
MERRILL        CLOUDY    69  69 100 CALM      30.01R FOG
$$

WIZ029-030-035-036-043>047-021500-
CENTRAL WISCONSIN

CITY           SKY/WX    TMP DP  RH WIND       PRES   REMARKS
WAUSAU         CLOUDY    73  71  93 SW6       29.99S FOG
MOSINEE        NOT AVBL
MARSHFIELD     CLOUDY    73  69  87 SW3       30.00S FOG
STEVENS POINT  PTSUNNY   74  70  88 SW6       30.01S
WAUPACA        MOSUNNY   76  75  96 S8        30.00S
WAUTOMA        NOT AVBL
WISC RAPIDS    PTSUNNY   77  70  79 S7        30.01S
CAMP DOUGLAS   NOT AVBL
$$

WIZ011>013-019>022-031-037>040-048>050-021500-
NORTHEAST WISCONSIN

CITY           SKY/WX    TMP DP  RH WIND       PRES   REMARKS
ANTIGO         CLOUDY    72  72 100 W6        30.01F FOG
SHAWANO        PTSUNNY   74  72  95 CALM      29.99S FOG
OCONTO         MOSUNNY   74  74 100 SW3       29.97F
STURGEON BAY   MOSUNNY   77  72  83 W5        30.00F
GREEN BAY      MOSUNNY   77  74  90 VRB5      29.98F FOG
MANITOWOC      NOT AVBL
APPLETON       NOT AVBL
CLINTONVILLE   MOSUNNY   77  75  94 SW5       29.99S
OSHKOSH        SUNNY     77  71  82 SW9       30.00F
$$

WIZ032>034-041-042-053>061-021500-
SOUTHWEST WISCONSIN

CITY           SKY/WX    TMP DP  RH WIND       PRES   REMARKS
LA CROSSE      CLOUDY    77  69  76 SW5       29.96S
SPARTA         PTSUNNY   71  68  90 CALM      29.99R
VIROQUA          N/A     73  69  88 S6        30.01S
BOSCOBEL       PTSUNNY   72  70  93 CALM      29.99S FOG
PRAIRIE DU CHI PTSUNNY   76  67  73 W5        29.99R
PLATTEVILLE    PTSUNNY   72  71  96 SE8       30.03F
$$

WIZ056-057-062-063-064-067-068-021500-
SOUTH CENTRAL WISCONSIN

CITY           SKY/WX    TMP DP  RH WIND       PRES   REMARKS
REEDSBURG      MOSUNNY   74  70  86 S3        30.00F
BARABOO/DELLS  MOSUNNY   75  67  75 SW7       30.01F
LONE ROCK      NOT AVBL
MINERAL POINT  MOSUNNY   73  70  88 S6        30.04F
MADISON        PTSUNNY   76  69  79 S7        30.02F
MIDDLETON      MOSUNNY   77  68  72 SW6       30.02F
WATERTOWN      MOSUNNY   73  73 100 CALM      30.03F
MONROE         PTSUNNY   72  68  88 SW8       30.05F
JANESVILLE     SUNNY     75  72  88 SW6       30.04F
$$

WIZ051-052-058>065-066-070>072-021500-
SOUTHEAST WISCONSIN

CITY           SKY/WX    TMP DP  RH WIND       PRES   REMARKS
MILWAUKEE      MOSUNNY   78  69  73 SW8       30.03F HX  80
WAUKESHA       SUNNY     75  70  83 SW6       30.05F
MILWAUKEE/TIMM SUNNY     77  66  69 SW6       30.03F
RACINE         MOSUNNY   78  69  73 W6        30.06S HX  80
BURLINGTON     SUNNY     73  69  88 CALM      30.05S
KENOSHA        PTSUNNY   77  70  79 W6        30.05S
FOND DU LAC    MOSUNNY   77  72  84 SW6       30.01F
SHEBOYGAN      SUNNY     79  73  82 SW7       30.00F HX  82
WEST BEND        N/A    N/A N/A N/A MISG        N/A
JUNEAU         MOSUNNY   74  71  90 S5        30.04F
$$

LSZ147-162-021500-
LAKE SUPERIOR

STATION/POSITION TIME  TEMP    WIND        PRES    WAVE
                       AIR SEA DIR/SP/G            HT/PER
                 (UTC) (F)     (DEG/KT/KT) (MB)    (FT/S)
W MID LAKE BUOY  1250   57 56  110/  4/  6 1014.6R   0
DEVILS ISLAND    1300   60      70/  7/  8 1014.7R
PORT WING        1300   66     260/  9/ 11 1015.9R
SAXON HARBOR     1340   68     200/  4/  6 1014.2S
$$

LMZ867-665-643>646-021500-
LAKE MICHIGAN

STATION/POSITION TIME  TEMP    WIND        PRES    WAVE
                       AIR SEA DIR/SP/G            HT/PER
                 (UTC) (F)     (DEG/KT/KT) (MB)    (FT/S)
CHAMBERS ISLAND  1300   75     200/  1/  3 1014.9S
N MID LAKE BUOY  1250   66 65  200/  4/  6 1014.9R   1/ 4
NORTHPORT PIER   1300   68     120/  2/  2 1014.9S
SISTER BAY       1319   75        CALM       N/A
ALGOMA LAKESHORE 1244             CALM       N/A
KEWAUNEE LAKESHO 1300   60     190/  1/  2 1014.4S
SHEBOYGAN LAKESH 1300   76     250/  8/ 10 1016.2R
PORT WASHINGTON  1340   66      CALM  /  3 1016.9S
ATWATER BUOY     1300   63 52  140/  6/  8 1018.1R
MILWAUKEE LAKESH 1310   77     250/  8/  9   N/A
S MID LAKE BUOY  1250   72 70  210/ 10/ 12 1016.8R   1
KENOSHA   LAKESH 1300   74     230/  5/  7 1016.9S
$$

TC  - TEMPERATURE IN CELSIUS
VSB - VISIBILITY IN STATUTE MILES
WCI - WIND CHILL INDEX
HX  - HEAT INDEX




USA.gov is the U.S. government's official web portal to all federal, state and local government web resources and services.